• In Belarus
  • List of Countries
  • For 7 days
  • Water Temperature
  • Weather Map
  • Weather Widgets
  • user-avatar
    Login

    Hourly Weather Bukarevo 1

    Today, 27 February, Thursday

    Time Temperature Precipitation Wind Pressure Humidity
    00:00 +3°C° 0 mm 2 mps 725 mmHg 90%
    01:00 +2°C° 0 mm 2 mps 725 mmHg 91%
    02:00 +2°C° 0 mm 2 mps 724 mmHg 93%
    03:00 +2°C° 1.8 mm 2 mps 724 mmHg 95%
    04:00 +2°C° 1.8 mm 2 mps 724 mmHg 96%
    05:00 +2°C° 1.8 mm 2 mps 723 mmHg 98%
    06:00 +3°C° 0.9 mm 1 mps 723 mmHg 98%
    07:00 +3°C° 0.9 mm 1 mps 723 mmHg 98%
    08:00 +3°C° 0.9 mm 1 mps 723 mmHg 98%
    09:00 +2°C° 0.1 mm 2 mps 723 mmHg 96%
    10:00 0°C° 0.1 mm 4 mps 723 mmHg 95%
    11:00 +1°C° 0.1 mm 6 mps 724 mmHg 93%
    12:00 +1°C° 0 mm 6 mps 724 mmHg 86%
    13:00 +1°C° 0 mm 6 mps 725 mmHg 78%
    14:00 +1°C° 0 mm 6 mps 725 mmHg 71%
    15:00 +1°C° 0 mm 6 mps 725 mmHg 71%
    16:00 -1°C° 0 mm 6 mps 726 mmHg 72%
    17:00 0°C° 0 mm 5 mps 726 mmHg 72%
    18:00 -1°C° 0 mm 5 mps 726 mmHg 76%
    19:00 -1°C° 0 mm 4 mps 726 mmHg 80%
    20:00 -2°C° 0 mm 4 mps 727 mmHg 84%
    21:00 -2°C° 0 mm 4 mps 727 mmHg 84%
    22:00 -3°C° 0 mm 4 mps 727 mmHg 85%
    23:00 -2°C° 0 mm 3 mps 727 mmHg 85%

    Tomorrow, 28 February, Friday

    Time Temperature Precipitation Wind Pressure Humidity
    00:00 -2°C° 0 mm 3 mps 727 mmHg 85%
    01:00 -2°C° 0 mm 3 mps 727 mmHg 85%
    02:00 -2°C° 0 mm 3 mps 727 mmHg 85%
    03:00 -4°C° 0 mm 3 mps 727 mmHg 82%
    04:00 -4°C° 0 mm 3 mps 727 mmHg 79%
    05:00 -4°C° 0 mm 4 mps 727 mmHg 77%
    06:00 -4°C° 0 mm 4 mps 728 mmHg 77%
    07:00 -5°C° 0 mm 5 mps 728 mmHg 77%
    08:00 -4°C° 0 mm 5 mps 728 mmHg 77%
    09:00 -4°C° 0 mm 5 mps 728 mmHg 74%
    10:00 -3°C° 0 mm 6 mps 728 mmHg 72%
    11:00 -3°C° 0 mm 6 mps 728 mmHg 69%
    12:00 -3°C° 0 mm 6 mps 729 mmHg 68%
    13:00 -2°C° 0 mm 6 mps 729 mmHg 68%
    14:00 -2°C° 0 mm 6 mps 730 mmHg 68%
    15:00 -2°C° 0 mm 6 mps 730 mmHg 70%
    16:00 -1°C° 0 mm 5 mps 730 mmHg 72%
    17:00 -1°C° 0 mm 5 mps 731 mmHg 74%
    18:00 -2°C° 0.1 mm 5 mps 731 mmHg 79%
    19:00 -2°C° 0.1 mm 5 mps 732 mmHg 83%
    20:00 -2°C° 0.1 mm 5 mps 732 mmHg 88%
    21:00 -4°C° 0 mm 5 mps 732 mmHg 85%
    22:00 -4°C° 0 mm 5 mps 733 mmHg 81%
    23:00 -4°C° 0 mm 5 mps 733 mmHg 78%

    Day after tomorrow, 29 February, Saturday

    Time Temperature Precipitation Wind Pressure Humidity
    00:00 -4°C° 0 mm 5 mps 733 mmHg 80%
    01:00 -4°C° 0 mm 4 mps 733 mmHg 81%
    02:00 -4°C° 0 mm 4 mps 734 mmHg 83%
    03:00 -4°C° 0 mm 4 mps 734 mmHg 85%
    04:00 -4°C° 0 mm 3 mps 734 mmHg 87%
    05:00 -4°C° 0 mm 3 mps 734 mmHg 89%
    06:00 -4°C° 0.1 mm 3 mps 735 mmHg 89%
    07:00 -2°C° 0.1 mm 3 mps 735 mmHg 89%
    08:00 -2°C° 0.1 mm 3 mps 735 mmHg 89%
    09:00 -2°C° 0 mm 3 mps 736 mmHg 81%
    10:00 -1°C° 0 mm 3 mps 736 mmHg 74%
    11:00 -1°C° 0 mm 3 mps 737 mmHg 66%
    12:00 -1°C° 0 mm 3 mps 737 mmHg 65%
    13:00 0°C° 0 mm 3 mps 737 mmHg 64%
    14:00 0°C° 0 mm 3 mps 738 mmHg 63%
    15:00 -1°C° 0 mm 3 mps 738 mmHg 65%
    16:00 -1°C° 0 mm 2 mps 738 mmHg 67%
    17:00 0°C° 0 mm 1 mps 739 mmHg 70%
    18:00 0°C° 0 mm 1 mps 739 mmHg 71%
    19:00 -2°C° 0 mm 0 mps 740 mmHg 73%
    20:00 -2°C° 0 mm 0 mps 740 mmHg 75%
    21:00 -1°C° 0 mm 1 mps 740 mmHg 75%
    22:00 -1°C° 0 mm 1 mps 741 mmHg 75%
    23:00 -1°C° 0 mm 1 mps 741 mmHg 75%

    1 March, Sunday

    Time Temperature Precipitation Wind Pressure Humidity
    00:00 -3°C° 0 mm 2 mps 741 mmHg 75%
    01:00 -4°C° 0 mm 2 mps 741 mmHg 76%
    02:00 -5°C° 0 mm 3 mps 742 mmHg 76%
    03:00 -5°C° 0 mm 3 mps 742 mmHg 76%
    04:00 -5°C° 0 mm 3 mps 742 mmHg 76%
    05:00 -4°C° 0 mm 4 mps 741 mmHg 76%
    06:00 -5°C° 0 mm 5 mps 742 mmHg 74%
    07:00 -5°C° 0 mm 5 mps 742 mmHg 72%
    08:00 -5°C° 0 mm 6 mps 742 mmHg 71%
    09:00 -4°C° 0 mm 7 mps 741 mmHg 65%
    10:00 -3°C° 0 mm 7 mps 741 mmHg 59%
    11:00 -2°C° 0 mm 8 mps 741 mmHg 54%
    12:00 -1°C° 0 mm 8 mps 741 mmHg 51%
    13:00 0°C° 0 mm 8 mps 740 mmHg 49%
    14:00 0°C° 0 mm 8 mps 740 mmHg 47%
    15:00 0°C° 0 mm 8 mps 739 mmHg 50%
    16:00 -1°C° 0 mm 8 mps 739 mmHg 53%
    17:00 -1°C° 0 mm 7 mps 739 mmHg 55%
    18:00 -1°C° 0 mm 7 mps 739 mmHg 58%
    19:00 -1°C° 0 mm 8 mps 739 mmHg 60%
    20:00 -2°C° 0 mm 8 mps 739 mmHg 62%
    21:00 -2°C° 0.1 mm 8 mps 738 mmHg 71%
    22:00 -2°C° 0.1 mm 8 mps 738 mmHg 80%
    23:00 -4°C° 0.1 mm 9 mps 738 mmHg 89%

    2 March, Monday

    Time Temperature Precipitation Wind Pressure Humidity
    00:00 -4°C° 0.6 mm 9 mps 738 mmHg 91%
    01:00 -4°C° 0.6 mm 8 mps 737 mmHg 94%
    02:00 -4°C° 0.6 mm 8 mps 737 mmHg 96%
    03:00 -4°C° 0.3 mm 8 mps 737 mmHg 96%
    04:00 -3°C° 0.3 mm 7 mps 737 mmHg 96%
    05:00 -3°C° 0.3 mm 7 mps 736 mmHg 96%
    06:00 -2°C° 0 mm 7 mps 736 mmHg 96%
    07:00 -2°C° 0 mm 6 mps 736 mmHg 96%
    08:00 -2°C° 0 mm 6 mps 736 mmHg 96%
    09:00 -2°C° 0.2 mm 6 mps 736 mmHg 96%
    10:00 -1°C° 0.2 mm 5 mps 736 mmHg 97%
    11:00 0°C° 0.2 mm 5 mps 736 mmHg 98%
    12:00 -1°C° 0.6 mm 5 mps 736 mmHg 97%
    13:00 -1°C° 0.6 mm 5 mps 735 mmHg 97%
    14:00 -1°C° 0.6 mm 5 mps 735 mmHg 97%
    15:00 -1°C° 0.4 mm 4 mps 735 mmHg 97%
    16:00 -1°C° 0.4 mm 4 mps 735 mmHg 97%
    17:00 0°C° 0.4 mm 3 mps 735 mmHg 98%
    18:00 0°C° 0 mm 3 mps 735 mmHg 98%
    19:00 0°C° 0 mm 3 mps 735 mmHg 98%
    20:00 0°C° 0 mm 3 mps 736 mmHg 98%
    21:00 0°C° 0 mm 3 mps 736 mmHg 97%
    22:00 0°C° 0 mm 3 mps 736 mmHg 97%
    23:00 +1°C° 0 mm 2 mps 737 mmHg 96%

    3 March, Tuesday

    Time Temperature Precipitation Wind Pressure Humidity
    00:00 +1°C° 0 mm 2 mps 737 mmHg 95%
    01:00 0°C° 0 mm 3 mps 737 mmHg 94%
    02:00 -1°C° 0 mm 3 mps 737 mmHg 93%
    03:00 -1°C° 0 mm 3 mps 737 mmHg 93%
    04:00 -1°C° 0 mm 3 mps 738 mmHg 93%
    05:00 -1°C° 0 mm 3 mps 738 mmHg 92%
    06:00 -1°C° 0 mm 3 mps 738 mmHg 92%
    07:00 -1°C° 0 mm 3 mps 738 mmHg 92%
    08:00 -1°C° 0 mm 3 mps 739 mmHg 92%
    09:00 +1°C° 0 mm 3 mps 739 mmHg 90%
    10:00 +2°C° 0 mm 3 mps 739 mmHg 88%
    11:00 +3°C° 0 mm 3 mps 739 mmHg 86%
    12:00 +4°C° 0 mm 3 mps 740 mmHg 83%
    13:00 +5°C° 0 mm 4 mps 740 mmHg 79%
    14:00 +5°C° 0 mm 4 mps 740 mmHg 76%
    15:00 +5°C° 0 mm 3 mps 740 mmHg 80%
    16:00 +4°C° 0 mm 3 mps 740 mmHg 83%
    17:00 +3°C° 0 mm 3 mps 740 mmHg 86%
    18:00 +2°C° 0 mm 3 mps 741 mmHg 88%
    19:00 +2°C° 0 mm 3 mps 741 mmHg 90%
    20:00 0°C° 0 mm 4 mps 741 mmHg 92%
    21:00 0°C° 0 mm 4 mps 741 mmHg 92%
    22:00 0°C° 0 mm 4 mps 741 mmHg 92%
    23:00 0°C° 0 mm 4 mps 741 mmHg 92%
    Show more